Flag Weather past 2 weeks in Recife, Pernambuco, Brazil

Now
84 °F

Scattered clouds.


Feels Like: 90 °F
Forecast: 77 / 83 °F
Wind: 10 mph from East

Location: Recife Aeroporto

Current Time: Nov 23, 2014 at 10:24:09 AM

Latest Report: Nov 23, 2014 at 10:00 AM


Visibility: N/A

Pressure: 29.95 "Hg

Humidity: 66%

Dew point: 72 °F

Location of RecifeLocation

Historic Weather in Recife — Graph

°F

Recife temperature yesterday

Maximum temperature yesterday: 84 °F (at 9:00 AM)
Minimum temperature yesterday: 75 °F (at 6:00 PM)
Average temperature yesterday: 80 °F

Past Weeks' High & Low Weather Summary

 TemperatureHumidityPressure
High86 °F (Nov 13, 12:00 PM)94% (Nov 17, 3:00 AM)29.98 "Hg (Nov 17, 3:00 AM)
Low75 °F (Nov 16, 5:00 AM)62% (Nov 11, 2:00 PM)29.80 "Hg (Nov 10, 3:00 PM)
Average81 °F75%29.89 "Hg
* Reported Nov 8 9:00 AM — Nov 23 9:00 AM, Recife, Weather by CustomWeather, © 2014

Note: Actual official high and low records may vary slightly from our data, if they occured in-between our weather recording intervals... More about our weather records

Advertising

Recife weather history for previous 24 hours

 ConditionsComfort  
Time TempWeatherWind HumidityBarometerVisibility
9:00 AM
Nov 23
82 °FScattered clouds.12 mph70%29.95 "HgN/A
8:00 AM82 °FPartly sunny.9 mph70%29.95 "HgN/A
7:00 AM81 °FScattered clouds.8 mph74%29.92 "HgN/A
6:00 AM77 °FScattered clouds.7 mph83%29.92 "HgN/A
5:00 AM79 °FPassing clouds.9 mph79%29.89 "HgN/A
4:00 AM79 °FPassing clouds.7 mph74%29.89 "HgN/A
3:00 AM79 °FPassing clouds.6 mph74%29.89 "HgN/A
2:00 AM79 °FPassing clouds.7 mph79%29.89 "HgN/A
1:00 AM79 °FPassing clouds.5 mph79%29.89 "HgN/A
12:00 AM79 °FPassing clouds.6 mph79%29.92 "HgN/A
11:00 PM
Nov 22
79 °FScattered showers. Passing clouds.6 mph79%29.92 "HgN/A
10:00 PM79 °FPassing clouds.6 mph79%29.95 "HgN/A
9:00 PM79 °FPassing clouds.7 mph79%29.95 "HgN/A
8:00 PM75 °FPartly cloudy.2 mph94%29.92 "HgN/A
7:00 PM75 °FPartly cloudy.5 mph89%29.92 "HgN/A
6:00 PM75 °FScattered showers. Broken clouds.8 mph89%29.92 "HgN/A
5:00 PM77 °FBroken clouds.7 mph83%29.89 "HgN/A
4:00 PM77 °FScattered showers. Broken clouds.12 mph89%29.89 "HgN/A
3:00 PM81 °FScattered showers. Scattered clouds.10 mph79%29.89 "HgN/A
2:00 PM82 °FScattered clouds.9 mph74%29.89 "HgN/A
1:00 PM82 °FBroken clouds.12 mph70%29.92 "HgN/A
12:00 PM84 °FScattered clouds.13 mph66%29.92 "HgN/A
11:00 AM84 °FScattered clouds.14 mph70%29.92 "HgN/A
10:00 AM82 °FScattered clouds.10 mph74%29.95 "HgN/A
Weather by CustomWeather, © 2014

See weather overviewHow to use our weather pages